Regional Weather Roundup
Issued by NWS Upton, NY

Current Version | Previous Version | Text Only | Print | Product List | Glossary On
Versions: 1 2 3 4 5 6 7 8 9 10 11 12 13 14 15 16 17 18 19 20 21 22 23 24 25 26 27 28 29 30 31 32 33 34 35 36 37 38 39 40 41 42 43 44 45 46 47 48 49 50
000
ASUS41 KOKX 280218
RWROKX

REGIONAL WEATHER ROUNDUP
NATIONAL WEATHER SERVICE NEW YORK NY
1000 PM EDT WED MAY 27 2015

NOTE: "FAIR" INDICATES FEW OR NO CLOUDS BELOW 12,000 FEET WITH NO
SIGNIFICANT WEATHER AND/OR OBSTRUCTIONS TO VISIBILITY.

NYZ071-072-176-178-NJZ106-104-280300-
NEW YORK CITY METRO AREA


CITY           SKY/WX    TMP DP  RH WIND       PRES   REMARKS
CENTRAL PARK   CLOUDY    72  68  87 W6        30.17S
LAGUARDIA APRT CLOUDY    69  63  81 S5        30.15R THUNDER
KENNEDY INTL   CLOUDY    63  57  81 S15       30.17R
NEWARK/LIBERTY CLOUDY    73  69  87 SW6       30.14R THUNDER
BRNX BOT. GARD   N/A     66  64  94 SE2       30.17R
TETERBORO      CLOUDY    73  67  81 S8        30.13R
$$

NYZ177-179-078>081-280300-
LONG ISLAND NEW YORK

CITY           SKY/WX    TMP DP  RH WIND       PRES   REMARKS
FARMINGDALE    CLOUDY    65  60  84 SW10      30.17S
ISLIP          CLOUDY    66  60  81 SW13      30.16R
SHIRLEY        MOCLDY    66  60  81 SW13      30.19S
WESTHAMPTON    CLOUDY    64  59  83 SW8G21    30.21R
MONTAUK POINT    N/A     63  58  83 S8        30.21S
$$

NYZ052-065-067-280300-
HUDSON VALLEY

CITY           SKY/WX    TMP DP  RH WIND       PRES   REMARKS
WHITE PLAINS   LGT RAIN  65  63  93 SE7       30.15R FOG
NEWBURGH       MOCLDY    70  68  94 CALM      30.13
MONTGOMERY     FOG       67  67 100 CALM      30.12S VSB 1/4
POUGHKEEPSIE   CLOUDY    70  66  87 CALM      30.11S
ALBANY         CLOUDY    69  66  90 S10       30.08S
$$

NJZ001-105-106-008-010-013-015-019>022-104-280300-
NEW JERSEY

CITY           SKY/WX    TMP DP  RH WIND       PRES   REMARKS
NEWARK/LIBERTY CLOUDY    73  69  87 SW6       30.14R THUNDER
TETERBORO      CLOUDY    73  67  81 S8        30.13R
CALDWELL       CLOUDY    71  68  90 SW3       30.15R
MORRISTOWN     PTCLDY    73  70  88 SW6       30.15R
SOMERVILLE     CLOUDY    70  67  90 CALM      30.14R FOG
SUSSEX         MOCLDY    68  65  90 CALM      30.16R
ANDOVER          N/A     67  66  97 CALM      30.16R
TRENTON        CLOUDY    72  70  93 S6        30.15R
MILLVILLE      MOCLDY    71  66  84 VRB3      30.17S
ATLANTIC CITY  PTCLDY    68  62  81 S9        30.19R
WRIGHTSTOWN    CLOUDY    70  68  93 S6        30.14R
TOMS RIVER     MOCLDY   N/A N/A N/A S10       30.17R
BELMAR         MOCLDY    72  61  68 S9        30.17R
$$

PAZ047>061-062-071-280300-
EASTERN PENNSYLVANIA

CITY           SKY/WX    TMP DP  RH WIND       PRES   REMARKS
PHILADELPHIA   MOCLDY    74  70  87 S6        30.16R
ALLENTOWN      PTCLDY    69  67  93 CALM      30.15R
SCRANTON       CLEAR     71  65  81 SW5       30.13R
$$

CTZ002-004>006-009-010-012-RIZ004-006-007-MAZ004-011-015-280300-
SOUTHERN NEW ENGLAND
 IN CT

CITY           SKY/WX    TMP DP  RH WIND       PRES   REMARKS
BRADLEY INTL   LGT RAIN  69  65  86 S7        30.13S
HARTFORD       CLOUDY    69  64  84 S7        30.14S
DANBURY        LGT RAIN  67  63  87 SE5       30.16S
WTRBRY/OXFORD  CLOUDY    66  61  82 S5        30.17F
BRIDGEPORT     CLOUDY    66  60  81 SW9       30.16R
MERIDEN        CLOUDY    68  62  81 S6        30.15S
NEW HAVEN      CLOUDY    64  60  87 S3        30.16S
CHESTER        FAIR      64  61  88 S9        30.18S
GROTON         CLOUDY    63  58  83 CALM      30.18F
WILLIMANTIC    CLOUDY    70  62  76 S9        30.16R

 IN RI

CITY           SKY/WX    TMP DP  RH WIND       PRES   REMARKS
PROVIDENCE     MOCLDY    69  60  73 S10       30.18F
BLOCK ISLAND   CLEAR     61  55  82 SW12G17   30.21S
WESTERLY       CLOUDY    64  58  80 SW6       30.20S

 IN MA

CITY           SKY/WX    TMP DP  RH WIND       PRES   REMARKS
BOSTON         MOCLDY    71  63  75 S15G26    30.13S
WORCESTER      CLOUDY    69  62  78 SW12      30.15F
WESTFIELD      CLOUDY    69  66  90 S10       30.12F
PROVINCETOWN   CLEAR     61  55  82 S18G25    30.19R
NANTUCKET      CLEAR     60  57  89 S12       30.23S
$$

ANZ330-335-338-340-345-350-353-355-280300-
COASTAL MARINE OBSERVATIONS


STATION/POSITION TIME  SKY/WX   TEMP    WIND        PRES    VSBY  WAVE
                                AIR SEA DIR/SP/G                  HT/PER
                 (UTC)          (F)     (DEG/KT/KT) (MB)    (MI)  (FT/S)
NY HARB ENTRANCE 0150            59 51  200/ 17/ 21 1020.7          4/ 6
4S FIRE IS       0103               57                N/A           5/ 6
20S FIRE ISLAND  0150            62 57  200/ 14/ 17 1021.6          5/ 6
GREAT SOUTH BAY  0100            64 68  230/ 14/ 16   N/A
23SW MTP         0150            59 54  210/ 12/ 14 1022.2          4/ 6
HUDSON CANYON    NOT AVBL
KINGS POINT      0100            66 58  170/  4/  9 1020.2
CENTRAL LI SOUND 0200            63 56  240/ 10/ 14   N/A
EASTERN LI SOUND 0100            60     240/  4/ 10   N/A
ROBBINS REEF     0100            71     150/  3/  5 1019.4
$$


>>>>>>>>>>>>>>>>>>>>>>>>>>>> KEY <<<<<<<<<<<<<<<<<<<<<<<<<<<
>                                                          <
>     SKY/WX - SKY CONDITION/PRESENT WEATHER               <
>     TMP    - TEMPERATURE IN FAHRENHEIT                   <
>     DP     - DEWPOINT IN FAHRENHEIT                      <
>     RH     - RELATIVE HUMIDITY IN PERCENT                <
>     WIND   - DIRECTION AND SPEED IN MPH                  <
>     PRES   - MEAN SEA LEVEL PRESSURE IN INCHES OF HG     <
>     WCI    - WIND CHILL INDEX                            <
>     VSB    - VISIBILITY IN MILES                         <
>     HX     - HEAT INDEX                                  <
>     TC     - TEMPERATURE IN CELSIUS                      <
>     VRB    - VARIABLE WIND DIRECTION                     <
>                                                          <
>>>>>>>>>>>>>>>>>>>>>>>>>>>> KEY <<<<<<<<<<<<<<<<<<<<<<<<<<<




USA.gov is the U.S. government's official web portal to all federal, state and local government web resources and services.